Skip Page Navigation
NASA JPL Caltech
NASA Logo - Jet Propulsion Laboratory + View the NASA Portal
+ Center for Near-Earth Object Studies
JPL Home Earth Solar System Stars & Galaxies Technology
JPL Solar System Dynamics
BODIES ORBITS EPHEMERIDES TOOLS PHYSICAL DATA DISCOVERY FAQ SITE MAP
IMPORTANT: The SSD Announcement email list is now available. Major changes are coming in the near future, including possible hostname and/or URL changes. To be notified of such changes, subscribe to this email list.

Please visit this page for more details.


JPL Small-Body Database Browser
Search: [ help ]  
59722 (1999 KR6)
Classification: Main-belt Asteroid          SPK-ID: 2059722
Ephemeris | Orbit Diagram | Orbital Elements | Mission Design | Physical Parameters | Discovery Circumstances | Close-Approach Data ]

[ show orbit diagram ]
Orbital Elements at Epoch 2458600.5 (2019-Apr-27.0) TDB
Reference: JPL 14 (heliocentric ecliptic J2000)
 Element Value Uncertainty (1-sigma)   Units 
e .3343754057654421 4.1208e-08  
a 2.673808605004031 1.7496e-08 au
q 1.779752767766677 1.1044e-07 au
i 18.46281635575446 6.6484e-06 deg
node 156.991146088233 1.7232e-05 deg
peri 125.2620673480091 2.0618e-05 deg
M 189.7815667568429 1.3465e-05 deg
tp 2459355.588732652748
(2021-May-21.08873265)
6.5146e-05 TDB
period 1596.959498309312
4.37
1.5674e-05
4.291e-08
d
yr
n .225428384615345 2.2126e-09 deg/d
Q 3.567864442241385 2.3346e-08 au
  Orbit Determination Parameters
   # obs. used (total)      512  
   data-arc span      9102 days (24.92 yr)  
   first obs. used      1994-03-05  
   last obs. used      2019-02-04  
   planetary ephem.      DE431  
   SB-pert. ephem.      SB431-N16  
   condition code      0  
   norm. resid. RMS      .62855  
   source      ORB  
   producer      Otto Matic  
   solution date      2019-Jul-13 03:40:08  

Additional Information
 Earth MOID = .825663 au 
 Jupiter MOID = 1.96384 au 
 T_jup = 3.228 
[ show covariance matrix ]

Ephemeris | Orbit Diagram | Orbital Elements | Mission Design | Physical Parameters | Discovery Circumstances | Close-Approach Data ]

Physical Parameter Table
Parameter Symbol Value Units Sigma Reference Notes
absolute magnitude H 15.1   n/a MPO365940  

59722 (1999 KR6)          Discovered 1999-May-17 by LINEAR at Socorro
Reference: 20030614/Numbers.arcLast Updated: 2004-04-19

[ show close-approach data ]
Ephemeris | Orbit Diagram | Orbital Elements | Mission Design | Physical Parameters | Discovery Circumstances | Close-Approach Data ]
ABOUT SSD CREDITS/AWARDS PRIVACY/COPYRIGHT GLOSSARY LINKS
FirstGov 2020-Jan-26 02:33 UT
(server date/time)  
NASA Home Page
Site Manager:   Ryan S. Park
Webmaster  Alan B. Chamberlin